ONEWEB-0291 (49081 NORAD) Tracking and Keplerian Element Data

This shows tracking and keplerian element data for the satellite.

Feedback or suggestion? Click here.




ElementValue
Catalog49081
NameONEWEB-0291
Epoch Orbit362
Epoch Day261.91667824
Epoch Year2021
RAAN356.5058
Inclination87.4249
Eccentricity0.0018455
Argument of Perigee189.3097
Mean Anonmoly177.0741
Mean Motion15.17335499
Decay Rate-0.0101466
L11 49081U 21075G 21261.91667824 -.01014660 00000-0 -55100-1 0 9994
L22 49081 87.4249 356.5058 0018455 189.3097 177.0741 15.17335499 3625

Live tracking and technical data element details for ONEWEB-0291 (NORAD 49081). ONEWEB-0291 can be tracked NOW for your location showing map with azimuth and elevation plus other details from your city location.

Track the satellite on the map from your city or location and see movement details for azimuth, elevation, latitude, longitude, range, height, and movement on the map or in text.







IsCatalogInMostPopularTable: catalog: 49081, numindb: 11
Update: records affected: 1



GetName: 49081 ONEWEB-0291

Hit Count: updated at: Fri, 24 Sep 2021 18:05:43 GMT